sat.trackr.live / text

‹ back to catalog

STARLINK-35042

NORAD 65481 · 2025-195Z

PAYLOAD ACTIVE UNKNOWN

§ Identity

Operator
Country
US
Launch date
2025-09-03
Launch site
AFETR
Launch vehicle
Mass (kg)
RCS (m²)

Purposes: comms

External: N2YO · Heavens-Above · Gunter

§ Orbital elements

Epoch: 2026-09-20T21:36:55.267488Z

Period
93.85 min
Inclination
53.1591°
Eccentricity
0.0000856
Mean motion
15.34430882 rev/d
Perigee alt
462.0 km
Apogee alt
463.2 km
Semi-major
6,840.7 km
B*
8.3758e-4
RAAN
67.7336°
Arg perigee
104.0189°
Mean anomaly
256.0909°
Rev number
5,991

§ Raw data

STARLINK-350421 65481U 25195Z   26263.90063967  .00028057  00000+0  83758-3 0  99902 65481  53.1591  67.7336 0000856 104.0189 256.0909 15.34430882 59917

JSON: /api/v1/satellites/65481 · /tle

For live sub-satellite position, see the globe view (requires WebGL).

§ Visibility from observer

Set your observer location to see the next 7 days of passes ≥ 10°. The values pass through the URL so the page stays shareable.

No JS? Fill the form by hand. The geolocation button needs JavaScript.